This demonstration page uses our WeatherBlox Daily Observations layout. Learn more.

Left ArrowRight Arrow

Hourly Observations for March 26, 2018

Temp ( °F °C ) Dew Point ( °F °C ) Humidity (%) Winds ( mph kmh ) Pressure ( in mb ) Visibility ( mi km ) Precip ( " mm )
1:53 am 01:53 Clear 43 6.1 36 2.2 76 76 N 7 11 30.20 1023 10 16 0.00 0.00
2:53 am 02:53 Clear 44 6.7 34 1.1 68 68 N 8 13 30.21 1023 10 16 0.00 0.00
3:53 am 03:53 Clear 44 6.7 33 0.6 65 65 Calm 30.21 1023 10 16 0.00 0.00
4:53 am 04:53 Clear 42 5.6 33 0.6 71 71 NNW 7 11 30.21 1023 10 16 0.00 0.00
5:53 am 05:53 Clear 39 3.9 32 0 76 76 N 5 7 30.23 1024 10 16 0.00 0.00
6:53 am 06:53 Clear 38 3.3 32 0 79 79 NNE 3 6 30.24 1024 10 16 0.00 0.00
7:53 am 07:53 Sunny 44 6.7 32 0 63 63 NNW 7 11 30.25 1025 10 16 0.00 0.00
8:53 am 08:53 Sunny 48 8.9 33 0.6 56 56 NW 9 15 30.26 1025 10 16 0.00 0.00
9:53 am 09:53 Sunny 53 11.7 31 -0.6 43 43 N 12 19 30.26 1025 10 16 0.00 0.00
10:53 am 10:53 Sunny 55 12.8 29 -1.7 37 37 NNW 9 15 30.27 1025 10 16 0.00 0.00
11:53 am 11:53 Sunny 60 15.6 26 -3.3 27 27 N 18 30 30.26 1025 10 16 0.00 0.00
12:53 pm 12:53 Sunny 61 16.1 21 -6.1 21 21 N 16 26 30.24 1024 10 16 0.00 0.00
1:53 pm 13:53 Sunny 63 17.2 23 -5 22 22 NNE 18 30 30.23 1024 10 16 0.00 0.00
2:53 pm 14:53 Sunny 64 17.8 27 -2.8 25 25 N 10 17 30.21 1023 10 16 0.00 0.00
3:53 pm 15:53 Sunny 65 18.3 25 -3.9 22 22 N 14 22 30.20 1023 10 16 0.00 0.00
4:53 pm 16:53 Sunny 66 18.9 28 -2.2 24 24 N 12 19 30.19 1022 10 16 0.00 0.00
5:53 pm 17:53 Sunny 66 18.9 27 -2.8 23 23 N 13 20 30.20 1023 10 16 0.00 0.00
6:53 pm 18:53 Sunny 65 18.3 30 -1.1 27 27 N 9 15 30.21 1023 10 16 0.00 0.00
7:53 pm 19:53 Clear 61 16.1 31 -0.6 32 32 N 6 9 30.22 1024 10 16 0.00 0.00
8:53 pm 20:53 Clear 59 15 30 -1.1 33 33 N 7 11 30.24 1024 10 16 0.00 0.00
9:53 pm 21:53 Clear 55 12.8 33 0.6 44 44 N 6 9 30.27 1025 10 16 0.00 0.00
10:53 pm 22:53 Clear 56 13.3 32 0 40 40 N 8 13 30.28 1025 10 16 0.00 0.00
11:53 pm 23:53 Clear 55 12.8 32 0 42 42 NNW 8 13 30.28 1025 10 16 0.00 0.00

Powered by AerisWeather